PISAT (41784 NORAD) Tracking and Keplerian Element Data

This shows tracking and keplerian element data for the satellite.

Feedback or suggestion? Click here.




ElementValue
Catalog41784
NamePISAT
Epoch Orbit26709
Epoch Day269.61942045
Epoch Year2021
RAAN317.7166
Inclination97.9566
Eccentricity0.0030535
Argument of Perigee283.6094
Mean Anonmoly76.1708
Mean Motion14.63662698
Decay Rate1.86E-06
L11 41784U 16059B 21269.61942045 .00000186 00000-0 44570-4 0 9995
L22 41784 97.9566 317.7166 0030535 283.6094 76.1708 14.63662698267091

Live tracking and technical data element details for PISAT (NORAD 41784). PISAT can be tracked NOW for your location showing map with azimuth and elevation plus other details from your city location.

Track the satellite on the map from your city or location and see movement details for azimuth, elevation, latitude, longitude, range, height, and movement on the map or in text.







IsCatalogInMostPopularTable: catalog: 41784, numindb: 531
Update: records affected: 1



GetName: 41784 PISAT

Hit Count: updated at: Tue, 28 Sep 2021 16:06:48 GMT